Location: Dzierzno
(50.6159°N, 19.2852°E)
Time: 06:57:56
(UTC+00:00)

Cosmos 841 Rocket - Pass Details

Date: 18 November 2025
Orbit: 742 x 768 km, 74.0° (Epoch: 06 December)

Event Time Altitude Azimuth Distance (km) Brightness Sun altitude
Rises 15:44:54 0° 340° (NNW) 3,248 6.8 -8.3°
Reaches altitude 10° 15:47:39 10° 353° (N) 2,319 5.9 -8.7°
Maximum altitude 15:52:05 27° 50° (NE) 1,457 4.4 -9.4°
Drops below altitude 10° 15:56:31 10° 108° (ESE) 2,309 5.5 -10.0°
Enters shadow 15:58:44 - 119° (ESE) 3,053 6.2 -10.4°
